軌道要素
Epoch 2020 Sept. 28.0 TT = JDT 2459120.5
T 2020 Sept. 10.73877 TT Rudenko
q 2.1424587 (2000.0) P Q
n 0.13500323 Peri. 117.64792 +0.79758352 +0.58135930
a 3.7633384 Node 207.73795 -0.59862882 +0.79565993
e 0.4307026 Incl. 20.22190 +0.07418938 +0.17013710
P 7.30
From 1715 observations 2005 Apr. 17-2020 Oct. 17, mean residual 0".7.
Nongravitational parameters A1 = -0.05, A2 = -0.0285.
|